Terug naar catalogus

THORAD AGENA D DEB

ActiefSSO
NORAD 5129·DEBRIS·🇺🇸 United States

Gelanceerd Apr 8, 1970 vanaf Vandenberg Space Force Base

Loading…

Volgende Passages (komende 24 uur)

TLE

VersSource: Space-Track

Epoch: Sep 14, 2026, 04:23 UTC

1 05129U 70025JN  26257.18303053  .00001408  00000-0  17988-2 0  9994
2 05129  99.3114 342.7250 0191942 209.6995 179.6329 13.57350431745718

Volg THORAD AGENA D DEB in realtime met AllMySat

Download on the App Store